www.pogodaiklimat.ru

Погода и климат >> Архив погоды >> Франция >> Орлеан


АРХИВ ПОГОДЫ в Орлеане

Время (UTC), дата Ветер
(напр.,м/с)
 
Видим.   Явления Облачность Т
(С)
Тd
(С)
f
(%)
Тe
(С)
Тes
(С)
Комфортность P
(гПа)
Po
(гПа)
Тmin
(С)
Tmax
(С)
R
(мм)
R24
(мм)
S
(см)
10 9.07 СВ 4 24 км н/о +20.5 +7.1 42 +22 +22 комфорт 1019.1 1004.5
13 9.07 СВ 4 19 км н/о +24.3 +4.6 28 +24 +24 комфорт 1017.9 1003.5
14 9.07 СВ 4 18 км н/о +24.3 +4.6 28 +24 +24 комфорт 1017.6 1003.2
15 9.07 СВ 4-6
{6}
30 км н/о +25.1 +3.7 25 +24 +24 комфорт 1017.4 1003.0
16 9.07 СВ 4 30 км н/о +25.0 +4.2 26 +24 +24 комфорт 1017.0 1002.6
17 9.07 СВ 4 29 км н/о +24.4 +5.2 29 +24 +24 комфорт 1017.1 1002.7
18 9.07 СВ 3
{11}
35 км н/о +24.0 +4.4 28 +24 +24 комфорт 1017.4 1003.0 +13.1 +25.3 0
19 9.07 СВ 3 45 км н/о +22.4 +5.3 33 +23 +23 комфорт 1017.9 1003.4
20 9.07 СВ 2 60 км н/о +18.4 +5.9 44 +19 +19 по сезону 1018.5 1003.8
21 9.07 СВ 2
{5}
60 км н/о +16.0 +6.4 53 +16 +16 прохладно 1019.3 1004.4 0
22 9.07 СВ 2 60 км н/о +15.6 +6.6 55 +16 +16 тепло 1019.6 1004.7
23 9.07 СВ 2 60 км н/о +14.2 +7.0 62 +14 +14 по сезону 1020.1 1005.1
00 10.07 СВ 1
{4}
60 км н/о +13.4 +7.2 66 +14 +14 по сезону 1019.8 1004.8 0
01 10.07 СВ 1 60 км н/о +12.4 +7.3 71 +13 +13 по сезону 1019.8 1004.8
02 10.07 СВ 1 60 км н/о +11.9 +7.4 74 +12 +12 по сезону 1019.7 1004.6
03 10.07 С 2
{4}
60 км н/о +12.0 +7.5 74 +11 +11 прохладно 1019.8 1004.7 0
04 10.07 СВ 1 60 км н/о +10.8 +7.5 80 +11 +11 по сезону 1019.8 1004.7
05 10.07 С 1 55 км н/о +12.5 +8.2 75 +13 +13 по сезону 1020.0 1005.0
06 10.07 С 1
{3}
55 км н/о +15.6 +9.0 65 +17 +17 тепло 1020.0 1005.1 +10.7 +24.0 0
07 10.07 СВ 2 45 км н/о +18.6 +8.5 52 +20 +20 тепло 1019.9 1005.2
08 10.07 В 2 15 км н/о +21.1 +7.7 42 +22 +22 комфорт 1019.8 1005.2
09 10.07 СВ 2
{7}
19 км н/о +22.3 +8.0 40 +23 +23 комфорт 1019.7 1005.2 0
10 10.07 В 2 19 км н/о +23.6 +8.8 39 +24 +24 комфорт 1019.5 1005.0
11 10.07 СВ 2 19 км н/о +24.0 +9.6 40 +25 +25 комфорт 1019.2 1004.8
12 10.07 В 2
{10}
45 км н/о +25.1 +9.4 37 +26 +26 жарко 1018.9 1004.5 0
13 10.07 СВ 1 19 км н/о +26.0 +9.8 36 +27 +27 жарко 1018.3 1004.0
14 10.07 В 2 17 км н/о +26.7 +10.0 35 +27 +27 жарко 1017.7 1003.4
15 10.07 СВ 1
{10}
55 км н/о +27.3 +9.6 33 +28 +28 жарко 1017.2 1002.9 0
16 10.07 СВ 1 30 км н/о +27.5 +9.3 32 +28 +28 жарко 1016.7 1002.5
17 10.07 С 1 50 км н/о +26.9 +10.1 35 +27 +27 жарко 1016.5 1002.2
18 10.07 В 1
{4}
45 км н/о +26.7 +10.0 35 +27 +27 жарко 1016.2 1001.9 +15.7 +27.8 0
19 10.07 СВ 1 55 км н/о +25.5 +10.5 39 +26 +26 жарко 1016.1 1001.8
20 10.07 В 1 19 км н/о +22.4 +11.8 51 +25 +25 комфорт 1016.0 1001.5
21 10.07 В 1
{8}
50 км н/о +20.8 +11.4 55 +24 +24 комфорт 1016.2 1001.6 0
22 10.07 ЮВ 1 17 км н/о +19.3 +11.3 60 +21 +21 комфорт 1015.7 1001.1
23 10.07 ЮВ 2 55 км 9/9
[]
+18.7 +12.2 66 +20 +20 тепло 1015.5 1000.9
00 11.07 ЮВ 2
{4}
50 км 10/0
[]
+19.1 +11.4 61 +21 +21 комфорт 1015.2 1000.6 0
01 11.07 ЮВ 2 50 км 10/10
[]
+18.6 +11.4 63 +20 +20 тепло 1014.7 1000.1
02 11.07 З 1 50 км 9/9
[]
+17.5 +11.7 69 +19 +19 тепло 1014.6 999.9
03 11.07 С 1
{3}
45 км 10/0
[]
+16.1 +11.9 76 +17 +17 тепло 1014.6 999.8 0
04 11.07 штиль 0 17 км 10/10
[]
+16.8 +11.5 71 +17 +17 тепло 1014.1 999.4
05 11.07 СВ 1 19 км 10/10
[]
+16.7 +12.6 77 +18 +18 тепло 1013.7 999.0
06 11.07 С 1
{2}
50 км 10/10 1500 м
[]
+17.5 +12.8 74 +19 +19 тепло 1014.2 999.5 +16.1 +26.6 0
07 11.07 В 1 14 км 9/9
[]
+19.6 +13.5 68 +23 +23 комфорт 1014.2 999.6
08 11.07 ЮВ 1 12 км 10/10
[]
+21.4 +11.4 53 +23 +23 комфорт 1014.0 999.5
09 11.07 ЮЗ 1
{4}
40 км 10/0
[]
+23.6 +11.9 48 +25 +25 комфорт 1013.7 999.3 0
10 11.07 ЮЗ 2 40 км 10/10
[]
+26.2 +13.0 44 +28 +28 жарко 1013.4 999.2
11 11.07 Ю 2 40 км н/о +28.3 +11.4 35 +29 +29 жарко 1012.6 998.5
12 11.07 ЮЗ 3
{9}
24 км н/о +28.9 +11.9 35 +30 +30 жарко 1012.3 998.2 0
13 11.07 З 3 45 км 10/10 2000 м
[]
+28.7 +11.3 34 +29 +29 жарко 1012.0 997.9
14 11.07 ЮЗ 3 40 км 10/10 2000 м
[]
+28.5 +10.7 33 +29 +29 жарко 1011.8 997.7
15 11.07 З 2
{8}
45 км 10/0
[]
+28.1 +11.2 35 +29 +29 жарко 1011.8 997.7 0
16 11.07 З 2 40 км 10/10
[]
+27.6 +12.0 38 +29 +29 жарко 1011.9 997.7
17 11.07 З 1 19 км 10/10
[]
+26.4 +12.8 43 +28 +28 жарко 1011.8 997.6
18 11.07 ЮЗ 1
{3}
40 км 10/0
[]
+26.8 +13.2 43 +29 +29 жарко 1011.6 997.4 +17.6 +30.5 0
19 11.07 СЗ 2 30 км 10/10 2000 м
[]
+26.4 +12.8 43 +28 +28 жарко 1012.0 997.8
20 11.07 З 3 40 км 10/10
[]
+24.4 +11.0 43 +26 +26 жарко 1012.6 998.3
21 11.07 С 2
{8}
35 км 9/0
[]
+21.8 +11.5 52 +24 +24 комфорт 1013.3 998.8 0
22 11.07 С 2 30 км н/о +19.2 +12.7 66 +21 +21 комфорт 1013.6 999.0
23 11.07 С 2 30 км н/о +17.9 +12.3 70 +19 +19 тепло 1013.9 999.2
00 12.07 СЗ 2
{3}
27 км н/о +15.9 +12.1 78 +16 +16 по сезону 1014.1 999.3 0
01 12.07 СЗ 2 26 км н/о +14.9 +11.9 82 +15 +15 тепло 1014.5 999.7
02 12.07 С 1 27 км н/о +14.0 +11.5 85 +14 +14 по сезону 1014.6 999.7
03 12.07 СЗ 1
{3}
22 км н/о +13.9 +11.8 87 +14 +14 по сезону 1014.4 999.5 0
04 12.07 СЗ 1 20 км 10/10
[]
+14.0 +12.0 88 +14 +14 тепло 1014.9 1000.0
05 12.07 З 1 20 км 10/3 1320 м
[]
+14.3 +12.5 89 +15 +16 тепло 1015.6 1000.7
06 12.07 СЗ 1
{3}
19 км 10/10 1500 м
[]
+15.8 +12.9 83 +16 +16 тепло 1015.7 1000.9 +13.4 +27.0 0
07 12.07 ЮЗ 1 20 км 10/3 1380 м
[]
+18.2 +13.7 75 +20 +22 тепло 1015.9 1001.2
08 12.07 З 2 30 км 10/10 1320 м
[]
+19.4 +14.0 71 +22 +22 комфорт 1016.2 1001.6
09 12.07 СЗ 2
{5}
18 км 10/10 1000 м
[]
+20.3 +13.3 64 +23 +23 комфорт 1015.9 1001.3 0
10 12.07 З 2 50 км 10/9 1440 м
[]
+22.4 +12.3 53 +25 +26 комфорт 1015.8 1001.3
11 12.07 З 3 40 км 10/10 1300 м
[]
+22.9 +12.2 51 +26 +26 жарко 1015.9 1001.5
12 12.07 З 2
{9}
45 км 10/10 1000 м
[]
+23.8 +13.1 51 +26 +26 жарко 1015.7 1001.3 0
13 12.07 З 2 40 км 10/9 1380 м
[]
+24.3 +12.9 49 +26 +27 жарко 1015.6 1001.2
14 12.07 З 2 19 км н/о +26.0 +13.5 46 +28 +28 жарко 1015.2 1000.9
15 12.07 З 3
{10}
35 км н/о +26.5 +13.6 45 +29 +29 жарко 1014.8 1000.6 0
16 12.07 СЗ 4 40 км н/о +26.5 +13.3 44 +28 +28 жарко 1014.7 1000.5
17 12.07 СЗ 3 35 км н/о +26.2 +11.5 40 +27 +27 жарко 1015.0 1000.7
18 12.07 СЗ 2
{9}
40 км н/о +24.6 +11.5 44 +26 +26 жарко 1015.2 1000.8 +15.9 +27.2 0
19 12.07 С 2 45 км 9/9 1500 м
[]
+24.3 +12.9 49 +26 +26 жарко 1015.6 1001.2
20 12.07 С 2 40 км н/о +21.5 +12.6 57 +24 +24 комфорт 1016.2 1001.7
21 12.07 С 2
{5}
45 км н/о +19.2 +12.2 64 +21 +21 комфорт 1017.4 1002.8 0
22 12.07 С 2 55 км н/о +17.3 +12.0 71 +18 +18 тепло 1017.9 1003.2
23 12.07 С 2 50 км н/о +16.2 +12.0 76 +16 +16 тепло 1018.4 1003.6
00 13.07 С 2
{5}
45 км н/о +14.8 +11.8 82 +14 +14 по сезону 1018.6 1003.7 0
01 13.07 С 2 30 км н/о +13.5 +11.4 87 +13 +13 по сезону 1018.9 1003.9
02 13.07 С 1 30 км н/о +13.2 +11.3 88 +13 +13 по сезону 1019.0 1004.0
03 13.07 СЗ 2
{3}
26 км н/о +12.4 +11.0 91 +12 +12 прохладно 1019.1 1004.1 0
04 13.07 СЗ 2 17 км н/о +11.8 +10.9 94 +11 +11 по сезону 1019.3 1004.2
05 13.07 СЗ 1 17 км н/о +12.3 +11.0 92 +13 +13 по сезону 1019.3 1004.3
06 13.07 СЗ 2
{4}
19 км н/о +15.2 +13.0 87 +15 +15 по сезону 1019.6 1004.7 +11.7 +24.6 0
07 13.07 С 2 19 км н/о +17.7 +13.2 75 +18 +18 по сезону 1019.7 1005.0
08 13.07 СВ 1 28 км н/о +20.6 +13.5 64 +24 +24 комфорт 1019.8 1005.2
09 13.07 С 2
{8}
35 км н/о +22.6 +12.5 53 +25 +25 комфорт 1019.7 1005.2 0
10 13.07 С 2 35 км н/о +23.9 +10.9 44 +25 +25 комфорт 1019.8 1005.3
11 13.07 С 2 60 км н/о +24.3 +10.6 42 +25 +25 комфорт 1019.5 1005.1
12 13.07 СВ 3
{8}
28 км н/о +24.5 +9.6 39 +25 +25 комфорт 1019.1 1004.7 0
14 13.07 СВ 2 35 км н/о +26.4 +9.7 35 +27 +27 жарко 1018.5 1004.2
15 13.07 СВ 3
{10}
55 км н/о +25.9 +10.1 37 +27 +27 жарко 1018.2 1003.9 0
17 13.07 СВ 4 27 км 8/8 2000 м
[]
+25.2 +11.7 43 +27 +27 жарко 1017.8 1003.4
18 13.07 СВ 3
{10}
60 км н/о +24.9 +11.1 42 +26 +26 жарко 1017.9 1003.5 +15.2 +27.1 0
19 13.07 СВ 2 35 км н/о +23.0 +11.7 49 +25 +25 комфорт 1018.0 1003.5
20 13.07 СВ 2 30 км н/о +20.2 +11.4 57 +22 +22 комфорт 1018.4 1003.8
21 13.07 СВ 2
{6}
35 км н/о +17.8 +11.8 68 +18 +18 по сезону 1018.7 1004.0 0
22 13.07 СВ 2 40 км н/о +16.7 +11.6 72 +17 +17 тепло 1019.1 1004.3
23 13.07 СВ 2 35 км н/о +15.6 +11.6 77 +16 +16 тепло 1019.6 1004.7
00 14.07 СВ 2
{4}
28 км н/о +14.6 +11.6 82 +14 +14 по сезону 1019.8 1004.9 0
01 14.07 СВ 1 17 км н/о +13.9 +11.4 85 +14 +14 тепло 1019.9 1004.9
02 14.07 СВ 2 14 км н/о +13.0 +11.1 88 +13 +13 по сезону 1019.2 1004.2
03 14.07 СВ 2
{4}
11 км н/о +12.2 +10.6 90 +12 +12 прохладно 1018.9 1003.9 0
04 14.07 СВ 1 10 км н/о +11.7 +10.6 93 +11 +11 по сезону 1019.1 1004.0
05 14.07 С 1 16 км н/о +12.8 +11.0 89 +13 +13 по сезону 1019.0 1004.0
06 14.07 С 1
{4}
18 км н/о +14.4 +11.9 85 +15 +15 по сезону 1019.2 1004.3 +11.6 +24.9 0
07 14.07 С 3 19 км н/о +16.1 +12.3 78 +16 +16 прохладно 1019.0 1004.2
08 14.07 С 4 9000 м н/о +17.1 +12.4 74 +17 +17 по сезону 1019.1 1004.3
09 14.07 С 4
{11}
7000 м 8/8 600 м
[]
+18.9 +11.7 63 +20 +21 тепло 1018.7 1004.0 0
10 14.07 СВ 4 9000 м 9/9 1000 м
[]
+20.1 +11.6 58 +22 +23 комфорт 1018.5 1003.9
11 14.07 СВ 4 8000 м 8/8 1110 м
[]
+21.2 +11.5 54 +23 +26 комфорт 1018.7 1004.1
12 14.07 СВ 4
{11}
10 км 9/9 1000 м
[]
+20.5 +10.9 54 +22 +24 комфорт 1018.6 1004.0 0
13 14.07 СВ 4 10 км н/о +22.2 +11.0 49 +24 +24 комфорт 1018.1 1003.6
14 14.07 СВ 4 11 км н/о +22.8 +10.9 47 +25 +25 комфорт 1017.9 1003.4
15 14.07 СВ 3
{11}
12 км н/о +23.0 +10.1 44 +25 +25 комфорт 1017.6 1003.1 0
16 14.07 СВ 5 12 км н/о +21.8 +10.6 49 +24 +24 комфорт 1017.8 1003.3
17 14.07 СВ 4 11 км н/о +21.8 +10.6 49 +24 +24 комфорт 1017.8 1003.3
18 14.07 СВ 4
{11}
13 км н/о +20.7 +10.2 51 +23 +23 комфорт 1017.9 1003.3 +14.3 +23.7 0
19 14.07 СВ 3 35 км н/о +20.2 +9.4 50 +22 +22 комфорт 1018.0 1003.4
20 14.07 С 2 45 км н/о +17.8 +10.2 61 +18 +18 по сезону 1018.3 1003.6
21 14.07 С 2
{5}
19 км н/о +16.1 +10.2 68 +16 +16 прохладно 1018.7 1003.9 0
22 14.07 С 2 50 км н/о +15.0 +9.6 70 +15 +15 тепло 1019.1 1004.2
23 14.07 СВ 2 50 км н/о +12.9 +9.3 79 +12 +12 по сезону 1019.3 1004.3
00 15.07 С 2
{5}
40 км н/о +13.5 +9.9 79 +13 +13 по сезону 1019.4 1004.4 0
01 15.07 С 2 35 км н/о +12.7 +9.9 83 +12 +12 по сезону 1019.3 1004.3
02 15.07 С 2 25 км н/о +11.1 +9.2 88 +10 +10 прохладно 1019.2 1004.1
03 15.07 С 2
{5}
19 км н/о +10.5 +9.3 92 +9 +9 холодно 1019.0 1003.9 0
04 15.07 С 2 19 км н/о +10.7 +9.5 92 +9 +9 прохладно 1019.2 1004.1
05 15.07 С 1 19 км н/о +11.0 +9.9 93 +11 +11 по сезону 1019.5 1004.4
06 15.07 С 2
{6}
19 км н/о +12.9 +10.8 87 +12 +12 по сезону 1019.5 1004.5 +10.4 +20.9 0
07 15.07 СВ 3 14 км н/о +15.5 +11.5 77 +15 +15 прохладно 1019.4 1004.5
08 15.07 СВ 3 7000 м н/о +17.5 +11.7 69 +18 +18 по сезону 1019.4 1004.6
09 15.07 СВ 3
{8}
7000 м н/о +19.1 +11.6 62 +20 +20 тепло 1019.2 1004.5 0
10 15.07 СВ 3 15 км 8/8 1300 м
[]
+20.2 +10.0 52 +22 +25 комфорт 1019.0 1004.4
11 15.07 С 3 15 км 10/10 1380 м
[]
+21.7 +9.9 47 +23 +23 комфорт 1018.9 1004.3
12 15.07 С 3
{9}
19 км н/о +22.2 +10.0 46 +24 +24 комфорт 1018.5 1004.0 0
13 15.07 С 3 27 км 8/8 1500 м
[]
+23.7 +10.0 42 +25 +28 комфорт 1018.1 1003.7
14 15.07 СВ 3 19 км н/о +23.9 +9.8 41 +25 +25 комфорт 1017.8 1003.4
15 15.07 СВ 3
{11}
17 км н/о +24.6 +10.1 40 +26 +26 жарко 1017.5 1003.1 0
16 15.07 СВ 3 24 км н/о +24.5 +9.6 39 +25 +25 комфорт 1017.3 1002.9
17 15.07 СВ 3 27 км н/о +24.4 +9.2 38 +25 +25 комфорт 1017.2 1002.8
18 15.07 СВ 3
{9}
40 км н/о +24.0 +9.2 39 +25 +25 комфорт 1017.3 1002.9 +13.0 +25.1 0
19 15.07 СВ 2 45 км н/о +22.3 +9.5 44 +24 +24 комфорт 1017.7 1003.2
20 15.07 СВ 1 40 км н/о +18.6 +9.9 57 +20 +20 по сезону 1018.1 1003.4
21 15.07 СВ 1
{3}
45 км н/о +16.8 +9.7 63 +18 +18 по сезону 1018.5 1003.7 0
22 15.07 С 1 19 км н/о +15.5 +9.6 68 +16 +16 тепло 1019.0 1004.1
23 15.07 СВ 3
{4}
19 км н/о +14.3 +9.5 73 +13 +13 по сезону 1019.2 1004.3
00 16.07 СВ 2
{6}
19 км н/о +12.6 +9.6 82 +12 +12 прохладно 1019.2 1004.2 0
01 16.07 СВ 1 19 км н/о +11.9 +9.5 85 +12 +12 по сезону 1019.5 1004.4
02 16.07 СВ 1 18 км н/о +10.6 +8.9 89 +11 +11 прохладно 1019.4 1004.3
03 16.07 СВ 1
{2}
14 км н/о +10.5 +8.9 90 +11 +11 прохладно 1019.2 1004.1 0
04 16.07 СВ 1 13 км н/о +9.5 +8.1 91 +10 +10 по сезону 1019.4 1004.2
05 16.07 СВ 1 11 км н/о +10.9 +9.3 90 +10 +10 прохладно 1019.5 1004.4
06 16.07 СВ 2
{4}
11 км н/о +13.0 +10.2 83 +13 +13 по сезону 1019.5 1004.5 +9.3 +24.0 0
07 16.07 СВ 1 11 км н/о +15.7 +10.5 71 +16 +16 прохладно 1019.4 1004.5
08 16.07 СВ 1 18 км н/о +19.1 +10.9 59 +21 +21 комфорт 1019.1 1004.4
09 16.07 СВ 2 18 км н/о +20.5 +10.6 53 +23 +23 комфорт 1018.7 1004.1
10 16.07 С 1 26 км н/о +21.6 +10.4 49 +23 +23 комфорт 1018.7 1004.1

 

Местоположение метеостанции Орлеан (Франция): широта 47.98 долгота 1.78 высота над уровнем моря 125 м.

В архиве по умолчанию представлена погода в Орлеане за последнюю неделю. Архивные данные за месяц целиком и за предыдущие месяцы, начиная с января 2011 года, Вы можете получить, выбрав интересующий диапазон дат из раскрывающегося списка и нажав кнопку "Ввод!".


*Определитесь, кто Вы:
робот инопланетянин человек

Внимание! Время в таблицах - всемирное. Для получения местного времени необходимо прибавить поправку, которая равна 1 ч.

Смотрите также архив погоды в соседних городах и на ближайших метеорологических станциях:

Погода в Шатодёне (Франция) (31 км)
Погода в Блуа (Франция) (53 км)
Погода в Шартре (Франция) (58 км)
Погода в Роморантен-Лантене (Франция) (74 км)
Погода в Трапе (Франция) (89 км)
Погода в Велизи-Вилакубле (Франция) (93 км)
Погода в Париж Орли аэропорту (Франция) (93 км)
Погода в Мелене (Франция) (97 км)
Погода в Туре (Франция) (98 км)
Погода в Тусю-ле-Нобле (Франция) (101 км)

Пояснения к столбцам:

Ветер - указаны скорость ветра в м/с - средняя за 10 мин, порывы в срок и между сроками (в фигурных скобках) и направление, откуда дует ветер: С - северный, СВ - северо-восточный, В - восточный, ЮВ - юго-восточный, Ю - южный, ЮЗ - юго-западный, З - западный, СЗ - северо-западный.
Видимость - горизонтальная дальность видимости в метрах или километрах. При видимости от 1 до 10 км при отсутствии осадков обычно наблюдается дымка, при ухудшении видимости до 1 км и менее - туман. В сухую погоду видимость может ухудшаться дымом, пылью или мглою.
Явления - указаны атмосферные явления, наблюдавшиеся в срок или в последний час перед сроком; фигурными скобками обозначены явления, наблюдавшиеся между сроками (за 1-3 часа до срока); квадратными скобками обозначены град или гололедные отложения с указанием их диаметра в мм.
Облачность - указаны через наклонную черту общая и нижняя облачность в баллах и высота нижней границы облаков в метрах; квадратными скобками обозначены формы облаков: Ci - перистые, Cs - перисто-слоистые, Cc - перисто-кучевые, Ac - высококучевые, As - высокослоистые, Sc - слоисто-кучевые, Ns - слоисто-дождевые, Cu - кучевые, Cb - кучево-дождевые. Подробнее классификацию облаков см. в Атласе облаков (PDF).
T - Температура воздуха - температура, измеренная на высоте 2 м над землей.
Td - Температура точки росы - температура, при понижении до которой содержащийся в воздухе водяной пар достигнет насыщения.
f - Относительная влажность воздуха - влажноcть воздуха, измеренная на высоте 2 м над землей.
Te - Эффективная температура - температура, которую ощущает одетый по сезону человек в тени. Характеристика душности погоды. При расчете учитывается влияние влажности воздуха и скорости ветра на теплоощущения человека.
Tes - Эффективная температура на солнце - температура, которую ощущает человек, с поправкой на солнечный нагрев. Характеристика знойности погоды. Зависит от высоты солнца над горизонтом, облачности и скорости ветра. Ночью, в пасмурную погоду, а также при ветре 12 м/с и более поправка равна нулю.
P - Атмосферное давление - приведенное к уровню моря атмосферное давление.
Po - Атмосферное давление - измеренное на уровне метеостанции атмосферное давление.
Tmin - Минимальная температура - минимум температуры воздуха на высоте 2 м над землей.
Tmax - Максимальная температура - максимум температуры воздуха на высоте 2 м над землей.
R - Количество осадков - Количество выпавших осадков за период времени, мм. При наведении курсора мыши на число - период времени, за который выпало указанное количество осадков.
R24 - Количество осадков - Количество выпавших осадков за 24 часа, мм.
S - Снежный покров - Высота снежного покрова, см. При наведении курсора мыши на число - состояние снежного покрова и степень покрытия местности в баллах.